Terug naar catalogus

STARLINK-5871

ActiefCommunicatieVLEO
NORAD 55919·PAYLOAD·🇺🇸 United States

Gelanceerd Mar 17, 2023 vanaf Vandenberg Space Force Base

Loading…

Volgende Passages (komende 24 uur)

TLE

VersSource: CelesTrak SupGP

Epoch: Sep 15, 2026, 01:38 UTC

1 55919C 23037F   26258.06854167 -.00010603  00000+0 -88858-3 0  2583
2 55919  70.0018 187.0149 0003127 270.2524  67.7194 14.98334528    14

Volg STARLINK-5871 in realtime met AllMySat

Download on the App Store